Preview of NWS' New Version of Forecast
This preview is not operational and should not be used for support decisions.

Regional Weather Roundup (RWR)

Issued by National Weather Service (NWS)

                            
000
ASUS44 KJAN 172010
RWRMS 

MISSISSIPPI HOURLY WEATHER ROUNDUP
NATIONAL WEATHER SERVICE JACKSON MS
300 PM CDT SUN MAR 17 2019

NOTE: "FAIR: INDICATES FEW OR NO CLOUDS BELOW 12,000 FEET WITH NO
SIGNIFICANT WEATHER AND/OR OBSTRUCTIONS TO VISIBILITY.

MSZ001>002-007>008-010>013-018>021-025>028-034>036-172100-
NORTHWEST MISSISSIPPI
  
CITY           SKY/WX    TMP DP  RH WIND       PRES   REMARKS
BATESVILLE     FAIR      64  27  24 CALM      30.25F                  
CLARKSDALE     SUNNY     64  32  29 CALM      30.28F                  
CLEVELAND      FAIR      63  32  31 NE3       30.29F                  
GREENWOOD      FAIR      66  25  21 NW8       30.27F                  
GREENVILLE     FAIR      64  31  28 N7        30.29F                  
OLIVE BRANCH   SUNNY     61  30  31 W7G15     30.26F                  
OXFORD         DRIZZLE   63  27  25 W12G18    30.27F                  
TUNICA           N/A     61  32  33 W10G16    30.29F                  
WINONA         FAIR      63  29  27 N5        30.26F                  
$$

MSZ003>006-009-014>017-022>024-029>033-037>039-172100-
NORTHEAST MISSISSIPPI
  
CITY           SKY/WX    TMP DP  RH WIND       PRES   REMARKS
ABERDEEN       FAIR      64  37  36 VRB3G16   30.26F                  
COLUMBUS AFB   FAIR      65  26  22 NW9       30.24F                  
CORINTH        FAIR      66  27  22 N13G20    30.23F                  
GOLDN TRIANGLE FAIR      65  31  28 VRB5      30.26F                  
STARKVILLE     FAIR      63  30  29 CALM      30.27F                  
TUPELO         FAIR      64  27  24 CALM      30.24F                  
$$

MSZ040-058-172100-
CENTRAL MISSISSIPPI
  
CITY           SKY/WX    TMP DP  RH WIND       PRES   REMARKS
JACKSON INTL   PTSUNNY   65  26  23 N14       30.25F                  
JACKSON HAWKNS FAIR      65  27  23 N7        30.25F                  
MADISON        FAIR      63  28  27 N8        30.24F                  
MERIDIAN KEY   FAIR      67  26  21 N8        30.23F                  
MERIDIAN NAS   FAIR      65  25  22 NE9G20    30.24F                  
RAYMOND        FAIR      66  28  24 VRB7G16   30.25F                  
VICKSBURG VKS  CLEAR     63  27  25 N10       30.27F                  
$$

MSZ059>079-172100-
SOUTH MISSISSIPPI
  
CITY           SKY/WX    TMP DP  RH WIND       PRES   REMARKS
HATTIESBURG    FAIR      62  26  25 NE8       30.24F                  
LAUREL         CLEAR     63  28  26 NE9       30.23F                  
MCCOMB         FAIR      62  24  23 N7        30.24F                  
NATCHEZ        FAIR      61  28  28 NW13      30.27F                  
PINE BELT      FAIR      63  29  27 N10       30.24F                  
$$

MSZ080>082-172100-
COASTAL MISSISSIPPI
  
CITY           SKY/WX    TMP DP  RH WIND       PRES   REMARKS
BAY ST LOUIS   PTSUNNY   61  32  33 N12       30.23F                  
BILOXI         CLOUDY    60  30  32 N10       30.21F                  
PASCAGOULA     FAIR      63  28  26 N12       30.20F                  
GULFPORT       FAIR      61  30  31 N13       30.21F                  
$$

LAZ007>009-015>016-023>026-172100-
NORTHEAST LOUISIANA
  
CITY           SKY/WX    TMP DP  RH WIND       PRES   REMARKS
BASTROP        FAIR      65  28  25 NE9       30.29F                  
TALLULAH/VBURG FAIR      62  33  33 N10       30.28F                  
VIDALIA        FAIR      63  23  21 N9        30.26F                  
$$